Back to catalog

CO-55

CUTE-1

AliveAmateur RadioSSO
NORAD 27844·PAYLOAD·🇯🇵 Japan

Launched Jun 30, 2003 from Plesetsk Cosmodrome

Loading…

Next Passes (next 24 hours)

TLE

FreshSource: Space-Track

Epoch: Sep 14, 2026, 11:04 UTC

1 27844U 03031E   26257.46130458  .00000192  00000-0  10189-3 0  9999
2 27844  98.6770 264.9125 0008427 289.0249  71.0017 14.24381067204387

Track CO-55 in real time with AllMySat

Download on the App Store